Hourly Data Report for October 05, 2017

All times are specified in Local Standard Time (LST). Add 1 hour to adjust for Daylight Saving Time where and when it is observed.

HIGH LEVEL
ALBERTA

58°37'18.000" N
117°09'53.000" W
338.00 m
3073140
71066
YOJ

Download Data

Hourly Data (October 2017)
Hourly Data Report for October 5, 2017
Temp Definition
°C
Dew Point Temp Definition
°C
Rel Hum Definition
%
Wind Dir Definition
10's deg

Wind Spd Definition
km/h
Visibility Definition
km
Stn Press Definition
kPa
Hmdx Definition


Wind Chill Definition


Weather Definition


TIME
00:00 Legend Double Dagger 2.0 -0.4 84   0 16.1 97.45     LegendNANA
01:00 Legend Double Dagger 2.7 -0.3 81   0 16.1 97.43     LegendNANA
02:00 Legend Double Dagger 0.8 -1.9 82   0 16.1 97.39     LegendNANA
03:00 Legend Double Dagger -0.1 -2.8 82   0 16.1 97.32     LegendNANA
04:00 Legend Double Dagger -0.3 -2.6 85   0 16.1 97.29     LegendNANA
05:00 Legend Double Dagger -1.8 -3.8 87 LegendMM 4 16.1 97.22   -3 LegendNANA
06:00 Legend Double Dagger -0.8 -2.6 88   0 16.1 97.15     LegendNANA
07:00 Legend Double Dagger -0.4 -1.3 94   0 16.1 97.05     LegendNANA
08:00 Legend Double Dagger -1.3 -2.8 89   0 16.1 97.01     LegendNANA
09:00 Legend Double Dagger 4.9 1.6 79 LegendMM 4 16.1 96.96     LegendNANA
10:00 Legend Double Dagger 7.6 2.4 70 LegendMM 5 16.1 96.90     LegendNANA
11:00 Legend Double Dagger 10.4 2.8 59 LegendMM 5 16.1 96.80     LegendNANA
12:00 Legend Double Dagger 12.5 3.2 53 16 9 16.1 96.71     LegendNANA
13:00 Legend Double Dagger 14.0 3.6 49 LegendMM 8 16.1 96.62     LegendNANA
14:00 Legend Double Dagger 15.8 4.5 47 19 8 16.1 96.54     LegendNANA
15:00 Legend Double Dagger 16.5 5.2 47 18 5 16.1 96.48     LegendNANA
16:00 Legend Double Dagger 16.5 5.8 49 LegendMM 4 16.1 96.41     LegendNANA
17:00 Legend Double Dagger 15.8 5.5 50 16 5 16.1 96.32     LegendNANA
18:00 Legend Double Dagger 13.5 5.5 58   0 16.1 96.23     LegendNANA
19:00 Legend Double Dagger 10.0 4.9 70 20 5 16.1 96.20     LegendNANA
20:00 Legend Double Dagger 9.4 4.6 72   0 16.1 96.06     LegendNANA
21:00 Legend Double Dagger 7.1 4.0 81 23 5 16.1 96.02     LegendNANA
22:00 Legend Double Dagger 5.2 2.5 82   0 16.1 95.90     LegendNANA
23:00 Legend Double Dagger 5.1 3.0 86   0 16.1 95.82     LegendNANA

Notes on Data Quality.

Legend

  • E = Estimated
  • M = Missing
  • NA = Not Available
  • ‡ = Partner data that is not subject to review by the National Climate Archives
Date modified: